Time,TemperatureF,DewpointF,PressureIn,WindDirection,WindDirectionDegrees,WindSpeedMPH,WindSpeedGustMPH,Humidity,HourlyPrecipIn,Conditions,Clouds,dailyrainin,SoftwareType,DateUTC
2013-01-28 00:01:00,35.0,35.0,30.19,West,270,0.0,1.0,99,0.00,,,-99.99,,2013-01-28 08:01:00,
2013-01-28 00:11:00,35.0,35.0,30.19,West,270,0.0,1.0,99,0.00,,,-99.99,,2013-01-28 08:11:00,
2013-01-28 00:21:00,35.0,35.0,30.20,NW,315,0.0,2.0,99,0.00,,,-99.99,,2013-01-28 08:21:00,
2013-01-28 00:31:00,35.0,35.0,30.20,NW,315,0.0,2.0,99,0.00,,,-99.99,,2013-01-28 08:31:00,
2013-01-28 00:41:00,35.0,35.0,30.20,NW,315,0.0,2.0,99,0.00,,,-99.99,,2013-01-28 08:41:00,
2013-01-28 00:52:00,34.0,34.0,30.20,NW,315,0.0,0.0,99,0.00,,,-99.99,,2013-01-28 08:52:00,
2013-01-28 01:01:00,34.0,34.0,30.20,NW,315,0.0,0.0,99,0.00,,,-99.99,,2013-01-28 09:01:00,
2013-01-28 01:11:00,34.0,34.0,30.20,NW,315,0.0,0.0,99,0.00,,,-99.99,,2013-01-28 09:11:00,
2013-01-28 01:21:00,33.0,33.0,30.20,NW,315,0.0,0.0,99,0.00,,,-99.99,,2013-01-28 09:21:00,
2013-01-28 01:31:00,33.0,33.0,30.21,NW,315,0.0,0.0,99,0.00,,,-99.99,,2013-01-28 09:31:00,
2013-01-28 01:41:00,33.0,33.0,30.21,NW,315,0.0,0.0,99,0.00,,,-99.99,,2013-01-28 09:41:00,
2013-01-28 01:52:00,33.0,33.0,30.21,NW,315,0.0,0.0,99,0.00,,,-99.99,,2013-01-28 09:52:00,
2013-01-28 02:01:00,33.0,33.0,30.20,NW,315,0.0,2.0,99,0.00,,,-99.99,,2013-01-28 10:01:00,
2013-01-28 02:11:00,33.0,33.0,30.20,NW,315,0.0,2.0,99,0.00,,,-99.99,,2013-01-28 10:11:00,
2013-01-28 02:21:00,33.0,33.0,30.20,NW,315,0.0,1.0,99,0.00,,,-99.99,,2013-01-28 10:21:00,
2013-01-28 02:31:00,32.0,32.0,30.22,NW,315,0.0,0.0,99,0.00,,,-99.99,,2013-01-28 10:31:00,
2013-01-28 02:41:00,32.0,32.0,30.22,NW,315,0.0,0.0,99,0.00,,,-99.99,,2013-01-28 10:41:00,
2013-01-28 02:52:00,32.0,32.0,30.22,NW,315,0.0,0.0,99,0.00,,,-99.99,,2013-01-28 10:52:00,
2013-01-28 03:01:00,33.0,33.0,30.22,NW,315,0.0,2.0,99,0.00,,,-99.99,,2013-01-28 11:01:00,
2013-01-28 03:11:00,33.0,33.0,30.22,NW,315,0.0,2.0,99,0.00,,,-99.99,,2013-01-28 11:11:00,
2013-01-28 03:21:00,33.0,33.0,30.22,NW,315,0.0,2.0,99,0.00,,,-99.99,,2013-01-28 11:21:00,
2013-01-28 03:32:00,33.0,33.0,30.22,NW,315,0.0,1.0,99,0.00,,,-99.99,,2013-01-28 11:32:00,
2013-01-28 03:41:00,33.0,33.0,30.22,NW,315,0.0,1.0,99,0.00,,,-99.99,,2013-01-28 11:41:00,
2013-01-28 03:52:00,34.0,34.0,30.23,SW,225,0.0,1.0,99,0.00,,,-99.99,,2013-01-28 11:52:00,
2013-01-28 04:03:00,34.0,34.0,30.23,NW,315,0.0,1.0,99,0.00,,,-99.99,,2013-01-28 12:03:00,
2013-01-28 04:11:00,34.0,34.0,30.23,NW,315,0.0,1.0,99,0.00,,,-99.99,,2013-01-28 12:11:00,
2013-01-28 04:22:00,35.0,35.0,30.23,NW,315,0.0,1.0,99,0.00,,,-99.99,,2013-01-28 12:22:00,
2013-01-28 04:32:00,35.0,35.0,30.23,West,270,0.0,0.0,99,0.00,,,-99.99,,2013-01-28 12:32:00,
2013-01-28 04:42:00,35.0,35.0,30.23,West,270,0.0,0.0,99,0.00,,,-99.99,,2013-01-28 12:42:00,
2013-01-28 04:52:00,35.0,35.0,30.24,SW,225,0.0,0.0,99,0.00,,,-99.99,,2013-01-28 12:52:00,
2013-01-28 05:02:00,35.0,35.0,30.24,SW,225,0.0,0.0,99,0.00,,,-99.99,,2013-01-28 13:02:00,
2013-01-28 05:11:00,35.0,35.0,30.24,SW,225,0.0,0.0,99,0.00,,,-99.99,,2013-01-28 13:11:00,
2013-01-28 05:22:00,35.0,35.0,30.24,SW,225,0.0,0.0,99,0.00,,,-99.99,,2013-01-28 13:22:00,
2013-01-28 05:32:00,35.0,35.0,30.23,West,270,0.0,1.0,99,0.00,,,-99.99,,2013-01-28 13:32:00,
2013-01-28 05:42:00,35.0,35.0,30.23,West,270,0.0,1.0,99,0.00,,,-99.99,,2013-01-28 13:42:00,
2013-01-28 05:52:00,34.0,34.0,30.24,West,270,0.0,0.0,99,0.00,,,-99.99,,2013-01-28 13:52:00,
2013-01-28 06:02:00,35.0,35.0,30.24,West,270,0.0,1.0,99,0.00,,,-99.99,,2013-01-28 14:02:00,
2013-01-28 06:11:00,35.0,35.0,30.24,West,270,0.0,1.0,99,0.00,,,-99.99,,2013-01-28 14:11:00,
2013-01-28 06:22:00,34.0,34.0,30.24,NW,315,0.0,2.0,99,0.00,,,-99.99,,2013-01-28 14:22:00,
2013-01-28 06:32:00,34.0,34.0,30.24,NW,315,0.0,1.0,99,0.00,,,-99.99,,2013-01-28 14:32:00,
2013-01-28 06:42:00,34.0,34.0,30.24,NW,315,0.0,1.0,99,0.00,,,-99.99,,2013-01-28 14:42:00,
2013-01-28 06:53:00,34.0,34.0,30.24,NW,315,0.0,1.0,99,0.00,,,-99.99,,2013-01-28 14:53:00,
2013-01-28 07:02:00,35.0,35.0,30.24,West,270,0.0,1.0,99,0.00,,,-99.99,,2013-01-28 15:02:00,
2013-01-28 07:12:00,35.0,35.0,30.24,West,270,0.0,1.0,99,0.00,,,-99.99,,2013-01-28 15:12:00,
2013-01-28 07:22:00,35.0,35.0,30.25,NW,315,0.0,1.0,99,0.00,,,-99.99,,2013-01-28 15:22:00,
2013-01-28 07:32:00,35.0,35.0,30.25,NW,315,0.0,0.0,99,0.00,,,-99.99,,2013-01-28 15:32:00,
2013-01-28 07:42:00,35.0,35.0,30.25,NW,315,0.0,0.0,99,0.00,,,-99.99,,2013-01-28 15:42:00,
2013-01-28 07:53:00,35.0,35.0,30.25,SW,225,0.0,2.0,99,0.00,,,-99.99,,2013-01-28 15:53:00,
2013-01-28 08:02:00,35.0,35.0,30.25,SW,225,0.0,2.0,99,0.00,,,-99.99,,2013-01-28 16:02:00,
2013-01-28 08:12:00,35.0,35.0,30.25,SW,225,0.0,2.0,99,0.00,,,-99.99,,2013-01-28 16:12:00,
2013-01-28 08:21:00,35.0,35.0,30.26,SW,225,0.0,2.0,99,0.00,,,-99.99,,2013-01-28 16:21:00,
2013-01-28 08:32:00,35.0,35.0,30.26,SW,225,0.0,1.0,99,0.00,,,-99.99,,2013-01-28 16:32:00,
2013-01-28 08:43:00,35.0,35.0,30.26,SW,225,0.0,1.0,99,0.00,,,-99.99,,2013-01-28 16:43:00,
2013-01-28 08:53:00,36.0,36.0,30.25,SW,225,0.0,0.0,99,0.00,,,-99.99,,2013-01-28 16:53:00,
2013-01-28 09:01:00,36.0,36.0,30.25,NW,315,0.0,0.0,99,0.00,,,-99.99,,2013-01-28 17:01:00,
2013-01-28 09:11:00,36.0,36.0,30.25,NW,315,0.0,0.0,99,0.00,,,-99.99,,2013-01-28 17:11:00,
2013-01-28 09:22:00,36.0,36.0,30.25,NW,315,0.0,0.0,99,0.00,,,-99.99,,2013-01-28 17:22:00,
2013-01-28 09:31:00,37.0,37.0,30.25,NW,315,0.0,0.0,99,0.00,,,-99.99,,2013-01-28 17:31:00,
2013-01-28 09:41:00,37.0,37.0,30.25,NW,315,0.0,0.0,99,0.00,,,-99.99,,2013-01-28 17:41:00,
2013-01-28 09:52:00,37.0,37.0,30.26,North,360,0.0,0.0,99,0.00,,,-99.99,,2013-01-28 17:52:00,
2013-01-28 10:01:00,37.0,37.0,30.26,North,360,0.0,0.0,99,0.00,,,-99.99,,2013-01-28 18:01:00,
2013-01-28 10:12:00,37.0,37.0,30.26,North,360,0.0,0.0,99,0.00,,,-99.99,,2013-01-28 18:12:00,
2013-01-28 10:22:00,37.0,37.0,30.26,North,360,0.0,0.0,99,0.00,,,-99.99,,2013-01-28 18:22:00,
2013-01-28 10:33:00,38.0,38.0,30.26,NW,315,0.0,0.0,99,0.00,,,-99.99,,2013-01-28 18:33:00,
2013-01-28 10:42:00,38.0,38.0,30.26,NW,315,0.0,0.0,99,0.00,,,-99.99,,2013-01-28 18:42:00,
2013-01-28 10:52:00,38.0,38.0,30.26,NW,315,0.0,0.0,99,0.00,,,-99.99,,2013-01-28 18:52:00,
2013-01-28 11:01:00,38.0,38.0,30.26,NW,315,0.0,0.0,99,0.00,,,-99.99,,2013-01-28 19:01:00,
2013-01-28 11:11:00,38.0,38.0,30.26,NW,315,0.0,0.0,99,0.00,,,-99.99,,2013-01-28 19:11:00,
2013-01-28 11:22:00,39.0,39.0,30.27,NW,315,0.0,0.0,99,0.00,,,-99.99,,2013-01-28 19:22:00,
2013-01-28 11:32:00,39.0,39.0,30.26,NW,315,0.0,0.0,99,0.00,,,-99.99,,2013-01-28 19:32:00,
2013-01-28 11:42:00,39.0,39.0,30.26,NW,315,0.0,0.0,99,0.00,,,-99.99,,2013-01-28 19:42:00,
2013-01-28 11:52:00,40.0,40.0,30.26,North,360,0.0,1.0,99,0.00,,,-99.99,,2013-01-28 19:52:00,
2013-01-28 12:02:00,40.0,40.0,30.26,North,360,0.0,2.0,99,0.00,,,-99.99,,2013-01-28 20:02:00,
2013-01-28 12:11:00,40.0,40.0,30.26,North,360,0.0,2.0,99,0.00,,,-99.99,,2013-01-28 20:11:00,
2013-01-28 12:21:00,40.0,40.0,30.26,NW,315,0.0,1.0,99,0.00,,,-99.99,,2013-01-28 20:21:00,
2013-01-28 12:32:00,41.0,41.0,30.25,East,90,0.0,0.0,99,0.00,,,-99.99,,2013-01-28 20:32:00,
2013-01-28 12:42:00,41.0,41.0,30.25,East,90,0.0,0.0,99,0.00,,,-99.99,,2013-01-28 20:42:00,
2013-01-28 12:52:00,41.0,41.0,30.25,SE,135,0.0,0.0,99,0.00,,,-99.99,,2013-01-28 20:52:00,
2013-01-28 13:02:00,41.0,41.0,30.24,South,180,0.0,1.0,99,0.00,,,-99.99,,2013-01-28 21:02:00,
2013-01-28 13:11:00,41.0,41.0,30.24,South,180,0.0,1.0,99,0.00,,,-99.99,,2013-01-28 21:11:00,
2013-01-28 13:22:00,41.0,41.0,30.24,South,180,0.0,1.0,99,0.00,,,-99.99,,2013-01-28 21:22:00,
2013-01-28 13:33:00,41.0,41.0,30.24,South,180,0.0,2.0,99,0.00,,,-99.99,,2013-01-28 21:33:00,
2013-01-28 13:42:00,41.0,41.0,30.24,South,180,0.0,2.0,99,0.00,,,-99.99,,2013-01-28 21:42:00,
2013-01-28 13:52:00,41.0,41.0,30.23,South,180,1.0,2.0,99,0.00,,,-99.99,,2013-01-28 21:52:00,
2013-01-28 14:01:00,41.0,41.0,30.23,South,180,1.0,3.0,99,0.00,,,-99.99,,2013-01-28 22:01:00,
2013-01-28 14:11:00,41.0,41.0,30.23,South,180,1.0,3.0,99,0.00,,,-99.99,,2013-01-28 22:11:00,
2013-01-28 14:22:00,40.0,40.0,30.23,South,180,0.0,2.0,99,0.00,,,-99.99,,2013-01-28 22:22:00,
2013-01-28 14:32:00,40.0,40.0,30.22,South,180,0.0,2.0,99,0.02,,,-99.99,,2013-01-28 22:32:00,
2013-01-28 14:42:00,40.0,40.0,30.22,South,180,0.0,2.0,99,0.02,,,-99.99,,2013-01-28 22:42:00,
2013-01-28 14:52:00,40.0,40.0,30.22,SE,135,1.0,2.0,99,0.02,,,-99.99,,2013-01-28 22:52:00,
2013-01-28 15:01:00,40.0,40.0,30.22,South,180,2.0,3.0,99,0.02,,,-99.99,,2013-01-28 23:01:00,
2013-01-28 15:11:00,40.0,40.0,30.22,South,180,2.0,3.0,99,0.02,,,-99.99,,2013-01-28 23:11:00,
2013-01-28 15:22:00,40.0,40.0,30.22,South,180,0.0,2.0,99,0.02,,,-99.99,,2013-01-28 23:22:00,
2013-01-28 15:32:00,40.0,40.0,30.21,South,180,0.0,2.0,99,0.02,,,-99.99,,2013-01-28 23:32:00,
2013-01-28 15:41:00,40.0,40.0,30.21,South,180,0.0,2.0,99,0.02,,,-99.99,,2013-01-28 23:41:00,
2013-01-28 15:53:00,40.0,40.0,30.22,South,180,0.0,2.0,99,0.00,,,-99.99,,2013-01-28 23:53:00,
2013-01-28 16:01:00,40.0,40.0,30.22,South,180,0.0,2.0,99,0.00,,,-99.99,,2013-01-29 00:01:00,
2013-01-28 16:11:00,40.0,40.0,30.22,South,180,0.0,2.0,99,0.00,,,-99.99,,2013-01-29 00:11:00,
2013-01-28 16:21:00,40.0,40.0,30.22,South,180,0.0,0.0,99,0.02,,,-99.99,,2013-01-29 00:21:00,
2013-01-28 16:32:00,40.0,40.0,30.22,South,180,0.0,0.0,99,0.02,,,-99.99,,2013-01-29 00:32:00,
2013-01-28 16:42:00,40.0,40.0,30.22,South,180,0.0,0.0,99,0.02,,,-99.99,,2013-01-29 00:42:00,
2013-01-28 16:52:00,40.0,40.0,30.21,South,180,0.0,0.0,99,0.02,,,-99.99,,2013-01-29 00:52:00,
2013-01-28 17:01:00,40.0,40.0,30.22,South,180,0.0,0.0,99,0.02,,,-99.99,,2013-01-29 01:01:00,
2013-01-28 17:11:00,40.0,40.0,30.22,South,180,0.0,0.0,99,0.02,,,-99.99,,2013-01-29 01:11:00,
2013-01-28 17:22:00,39.0,39.0,30.21,South,180,0.0,0.0,99,0.00,,,-99.99,,2013-01-29 01:22:00,
2013-01-28 17:31:00,39.0,39.0,30.23,South,180,0.0,2.0,99,0.02,,,-99.99,,2013-01-29 01:31:00,
2013-01-28 17:41:00,39.0,39.0,30.23,South,180,0.0,2.0,99,0.02,,,-99.99,,2013-01-29 01:41:00,
2013-01-28 17:52:00,39.0,39.0,30.23,South,180,0.0,2.0,99,0.02,,,-99.99,,2013-01-29 01:52:00,
2013-01-28 18:01:00,39.0,39.0,30.23,South,180,0.0,2.0,99,0.02,,,-99.99,,2013-01-29 02:01:00,
2013-01-28 18:11:00,39.0,39.0,30.23,South,180,0.0,2.0,99,0.02,,,-99.99,,2013-01-29 02:11:00,
2013-01-28 18:21:00,39.0,39.0,30.23,West,270,0.0,0.0,99,0.02,,,-99.99,,2013-01-29 02:21:00,
2013-01-28 18:32:00,39.0,39.0,30.23,West,270,0.0,0.0,99,0.00,,,-99.99,,2013-01-29 02:32:00,
2013-01-28 18:41:00,39.0,39.0,30.23,West,270,0.0,0.0,99,0.00,,,-99.99,,2013-01-29 02:41:00,
2013-01-28 18:53:00,39.0,39.0,30.23,West,270,0.0,0.0,99,0.02,,,-99.99,,2013-01-29 02:53:00,
2013-01-28 19:02:00,38.0,38.0,30.24,West,270,0.0,0.0,99,0.02,,,-99.99,,2013-01-29 03:02:00,
2013-01-28 19:11:00,38.0,38.0,30.24,West,270,0.0,0.0,99,0.02,,,-99.99,,2013-01-29 03:11:00,
2013-01-28 19:21:00,38.0,38.0,30.23,South,180,0.0,0.0,99,0.02,,,-99.99,,2013-01-29 03:21:00,
2013-01-28 19:31:00,38.0,38.0,30.23,NW,315,0.0,0.0,99,0.02,,,-99.99,,2013-01-29 03:31:00,
2013-01-28 19:41:00,38.0,38.0,30.23,NW,315,0.0,0.0,99,0.02,,,-99.99,,2013-01-29 03:41:00,
2013-01-28 19:52:00,38.0,38.0,30.23,West,270,0.0,0.0,99,0.00,,,-99.99,,2013-01-29 03:52:00,
2013-01-28 20:01:00,38.0,38.0,30.23,West,270,0.0,0.0,99,0.00,,,-99.99,,2013-01-29 04:01:00,
2013-01-28 20:11:00,38.0,38.0,30.23,West,270,0.0,0.0,99,0.00,,,-99.99,,2013-01-29 04:11:00,
2013-01-28 20:21:00,38.0,38.0,30.23,West,270,0.0,0.0,99,0.00,,,-99.99,,2013-01-29 04:21:00,
2013-01-28 20:31:00,38.0,38.0,30.23,West,270,0.0,0.0,99,0.00,,,-99.99,,2013-01-29 04:31:00,
2013-01-28 20:41:00,38.0,38.0,30.23,West,270,0.0,0.0,99,0.00,,,-99.99,,2013-01-29 04:41:00,
2013-01-28 20:52:00,38.0,38.0,30.23,NW,315,0.0,0.0,99,0.00,,,-99.99,,2013-01-29 04:52:00,
2013-01-28 21:03:00,38.0,38.0,30.23,NW,315,0.0,2.0,99,0.00,,,-99.99,,2013-01-29 05:03:00,
2013-01-28 21:12:00,38.0,38.0,30.23,NW,315,0.0,2.0,99,0.00,,,-99.99,,2013-01-29 05:12:00,
2013-01-28 21:21:00,38.0,38.0,30.24,West,270,0.0,2.0,99,0.00,,,-99.99,,2013-01-29 05:21:00,
2013-01-28 21:31:00,38.0,38.0,30.24,SW,225,0.0,2.0,99,0.00,,,-99.99,,2013-01-29 05:31:00,
2013-01-28 21:42:00,38.0,38.0,30.24,SW,225,0.0,2.0,99,0.00,,,-99.99,,2013-01-29 05:42:00,
2013-01-28 21:52:00,38.0,38.0,30.24,SW,225,0.0,1.0,99,0.00,,,-99.99,,2013-01-29 05:52:00,
2013-01-28 22:01:00,38.0,38.0,30.25,SW,225,0.0,1.0,99,0.00,,,-99.99,,2013-01-29 06:01:00,
2013-01-28 22:11:00,38.0,38.0,30.25,SW,225,0.0,1.0,99,0.00,,,-99.99,,2013-01-29 06:11:00,
2013-01-28 22:21:00,38.0,38.0,30.25,West,270,0.0,1.0,99,0.00,,,-99.99,,2013-01-29 06:21:00,
2013-01-28 22:31:00,38.0,38.0,30.25,West,270,0.0,1.0,99,0.00,,,-99.99,,2013-01-29 06:31:00,
2013-01-28 22:41:00,38.0,38.0,30.25,West,270,0.0,1.0,99,0.00,,,-99.99,,2013-01-29 06:41:00,
2013-01-28 22:52:00,38.0,38.0,30.26,SW,225,0.0,1.0,99,0.00,,,-99.99,,2013-01-29 06:52:00,
2013-01-28 23:01:00,38.0,38.0,30.27,SW,225,0.0,1.0,99,0.00,,,-99.99,,2013-01-29 07:01:00,
2013-01-28 23:11:00,38.0,38.0,30.27,SW,225,0.0,1.0,99,0.00,,,-99.99,,2013-01-29 07:11:00,
2013-01-28 23:21:00,38.0,38.0,30.27,NW,315,0.0,0.0,99,0.00,,,-99.99,,2013-01-29 07:21:00,
2013-01-28 23:31:00,38.0,38.0,30.27,NW,315,0.0,0.0,99,0.00,,,-99.99,,2013-01-29 07:31:00,
2013-01-28 23:41:00,38.0,38.0,30.27,NW,315,0.0,0.0,99,0.00,,,-99.99,,2013-01-29 07:41:00,
2013-01-28 23:52:00,38.0,38.0,30.28,NW,315,0.0,0.0,99,0.00,,,-99.99,,2013-01-29 07:52:00,